Stuttgart Airport

Airport
ICAO code: 
EDDS
IATA Code: 
STR
Summary
ICAO Region: 
EUR
Territory: 
Location: 
Echterdingen, Stuttgart,
Serving: 
Stuttgart
Elevation: 
1276 ft
Coordinates: 
Aerial View: 
48° 41' 16.983" N, 9° 12' 37.356" E
Metar
Observation
EDDS 262020Z VRB01KT 4800 -SN BR OVC004 M01/M02 Q1031 NOSIG
Station
Stuttgart-Echterdingen
Date/Time
2022-01-26 20:20:00
Wind speed
01 kts
Lowest cloud amount
overcast
Temperature
-1°C
Dew point
-2°C
Humidity
92%
QNH
1031 hPa
Weather condition
n/a

Description

International airport serving Stuttgart, Germany.

Climatology

Temperate Marine climate/Oceanic climate (Köppen climate classification Cfb) - Moderately cool summer and comparatively warm winter.

Runways

Designator Length Width Surface Rops
7/25 3345 45 CON Yes/Yes
Airport map: 
Aerial View: 

SKYbrary Partners:

Safety knowledge contributed by: